Flag for Switzerland Weather past 2 weeks in Grenchen, Solothurn, Switzerland

Now
33 °F

Chilly.


Feels Like: 33 °F
Forecast: 23 / 36 °F
Wind: 2 mph from Southeast

Location: Grenchen

Current Time: Jan 25, 2015 at 7:46:28 PM

Latest Report: Jan 25, 2015 at 7:00 PM


Visibility: N/A

Pressure: 30.48 "Hg

Humidity: 78%

Dew point: 27 °F

Location of GrenchenLocation

Historic Weather in Grenchen — Graph

°F

Grenchen temperature yesterday

Maximum temperature yesterday: 37 °F (at 1:00 PM)
Minimum temperature yesterday: 32 °F (at 10:00 PM)
Average temperature yesterday: 34 °F

Past Weeks' High & Low Weather Summary

 TemperatureHumidityPressure
High56 °F (Jan 10, 6:00 PM)100% (Jan 13, 4:00 AM)30.56 "Hg (Jan 13, 4:00 AM)
Low23 °F (Jan 13, 8:00 AM)54% (Jan 13, 3:00 PM)29.72 "Hg (Jan 16, 4:00 PM)
Average35 °F89%30.10 "Hg
* Reported Jan 10 6:00 PM — Jan 25 6:00 PM, Grenchen, Weather by CustomWeather, © 2014

Note: Actual official high and low records may vary slightly from our data, if they occured in-between our weather recording intervals... More about our weather records

Advertising

Grenchen weather history for previous 24 hours

 ConditionsComfort  
Time TempWeatherWind HumidityBarometerVisibility
6:00 PM
Jan 25
33 °FChilly.2 mph78%30.47 "HgN/A
5:00 PM35 °FChilly.7 mph70%30.45 "HgN/A
4:00 PM36 °FChilly.8 mph67%30.45 "HgN/A
3:00 PM36 °FChilly.12 mph64%30.44 "HgN/A
2:00 PM36 °FChilly.7 mph66%30.45 "HgN/A
1:00 PM35 °FChilly.13 mph63%30.47 "HgN/A
12:00 PM35 °FChilly.6 mph67%30.48 "HgN/A
11:00 AM35 °FChilly.7 mph67%30.48 "HgN/A
10:00 AM33 °FChilly.3 mph75%30.47 "HgN/A
9:00 AM33 °FChilly.14 mph68%30.46 "HgN/A
8:00 AM33 °FChilly.12 mph67%30.44 "HgN/A
7:00 AM34 °FChilly.12 mph67%30.41 "HgN/A
6:00 AM34 °FChilly.16 mph72%30.38 "HgN/A
5:00 AM35 °FChilly.12 mph72%30.37 "HgN/A
4:00 AM35 °FChilly.13 mph76%30.36 "HgN/A
3:00 AM34 °FChilly.3 mph82%30.37 "HgN/A
2:00 AM31 °FChilly.1 mph96%30.37 "HgN/A
1:00 AM31 °FChilly.1 mph94%30.36 "HgN/A
12:00 AM32 °FChilly.1 mph91%30.34 "HgN/A
11:00 PM
Jan 24
32 °FChilly.3 mph88%30.33 "HgN/A
10:00 PM32 °FChilly.1 mph88%30.33 "HgN/A
9:00 PM33 °FChilly.2 mph78%30.30 "HgN/A
8:00 PM33 °FChilly.2 mph77%30.28 "HgN/A
7:00 PM34 °FChilly.7 mph79%30.25 "HgN/A
Weather by CustomWeather, © 2014

See weather overviewHow to use our weather pages